Ely, MN

9:55 AM CST on December 13, 2017 (GMT -0600)
Ely Municipal

Weather History for KELO - December, 2011

Change the Weather History Date:

Thursday, December 15, 2011

  Actual Average Record
Temperature  
Mean Temperature 24 °F -  
Max Temperature 32 °F 22 °F 44 °F (1997)
Min Temperature 17 °F 7 °F -27 °F (2013)
Degree Days  
Heating Degree Days 40    
Moisture  
Dew Point 21 °F    
Average Humidity 86    
Maximum Humidity 100    
Minimum Humidity 73    
Precipitation  
Precipitation 0.01 in - - ()
Sea Level Pressure  
Sea Level Pressure 29.66 in    
Wind  
Wind Speed 9 mph (WNW)    
Max Wind Speed 21 mph    
Max Gust Speed 34 mph    
Visibility 5 miles    
Events Snow    
Averages and records for this station are not official NWS values.
T = Trace of Precipitation, MM = Missing Value Source: NWS Daily Summary

Daily Weather History Graph

Daily Weather History Graph

Search for Another Location

Airport or City:

Trip Planner

Search our weather history database for the weather conditions in past years. The results will help you decide how hot, cold, wet, or windy it might be!

Date:

Astronomy

Dec. 15, 2011 Rise Set
Actual Time 7:49 AM CST 4:15 PM CST
Civil Twilight 7:13 AM CST 4:51 PM CST
Nautical Twilight 6:33 AM CST 5:30 PM CST
Astronomical Twilight 5:56 AM CST 6:08 PM CST
Moon 10:02 PM CST (12/15) 10:48 AM CST (12/15)
Length of Visible Light 9h 38m
Length of Day
8h 25m
Waning Gibbous, 74% of the Moon is Illuminated
Dec 15
Waning Gibbous
Dec 17
Last Quarter
Dec 24
New
Jan 1
First Quarter
Jan 9
Full

Hourly Weather History & Observations

Time (CST) Temp. Windchill Dew Point Humidity Pressure Visibility Wind Dir Wind Speed Gust Speed Precip Events Conditions
12:13 AM 32.0 °F - 30.2 °F 93% 29.53 in 5.0 mi Calm Calm - N/A Snow Light Snow
12:32 AM 32.0 °F 28.7 °F 30.2 °F 93% 29.53 in 7.0 mi West 3.5 mph - N/A   Overcast
12:53 AM 30.2 °F 25.4 °F 30.2 °F 100% 29.53 in 7.0 mi West 4.6 mph - N/A   Overcast
1:13 AM 30.2 °F 26.7 °F 30.2 °F 100% 29.52 in 7.0 mi West 3.5 mph - N/A   Overcast
1:32 AM 32.0 °F 26.4 °F 30.2 °F 93% 29.52 in 7.0 mi West 5.8 mph - N/A Snow Light Snow
1:53 AM 30.2 °F 26.7 °F 30.2 °F 100% 29.52 in 2.5 mi West 3.5 mph - N/A Snow Light Snow
2:12 AM 30.2 °F 26.7 °F 30.2 °F 100% 29.52 in 3.0 mi West 3.5 mph - N/A Snow Light Snow
2:33 AM 30.2 °F - 30.2 °F 100% 29.52 in 4.0 mi Calm Calm - N/A Snow Light Snow
2:53 AM 30.2 °F 26.7 °F 30.2 °F 100% 29.52 in 4.0 mi West 3.5 mph - N/A Snow Light Snow
3:13 AM 30.2 °F 24.3 °F 30.2 °F 100% 29.52 in 3.0 mi West 5.8 mph - N/A Snow Light Snow
3:33 AM 32.0 °F 26.4 °F 30.2 °F 93% 29.52 in 3.0 mi West 5.8 mph - 0.01 in Snow Light Snow
3:53 AM 32.0 °F 26.4 °F 30.2 °F 93% 29.51 in 2.5 mi West 5.8 mph - 0.01 in Snow Light Snow
3:55 AM 32.0 °F 27.5 °F 30.2 °F 93% 29.51 in 2.5 mi West 4.6 mph - 0.01 in Snow Light Snow
4:13 AM 32.0 °F 24.8 °F 30.2 °F 93% 29.51 in 5.0 mi West 8.1 mph - N/A Snow Light Snow
4:33 AM 30.2 °F 21.3 °F 28.4 °F 93% 29.52 in 3.0 mi WNW 10.4 mph 17.3 mph N/A Snow Light Snow
4:52 AM 30.2 °F 22.6 °F 28.4 °F 93% 29.52 in 3.0 mi WNW 8.1 mph 16.1 mph N/A Snow Light Snow
5:13 AM 30.2 °F 20.2 °F 26.6 °F 86% 29.53 in 5.0 mi WNW 12.7 mph 17.3 mph N/A Snow Light Snow
5:33 AM 28.4 °F 19.1 °F 26.6 °F 93% 29.53 in 7.0 mi WNW 10.4 mph - N/A Snow Light Snow
5:52 AM 28.4 °F 17.0 °F 26.6 °F 93% 29.54 in 4.0 mi West 15.0 mph 20.7 mph N/A Snow Light Snow
6:13 AM 28.4 °F 17.5 °F 24.8 °F 86% 29.55 in 3.0 mi WNW 13.8 mph 21.9 mph N/A Snow Light Snow
6:33 AM 26.6 °F 16.2 °F 23.0 °F 86% 29.56 in 3.0 mi WNW 11.5 mph 21.9 mph N/A Snow Light Snow
6:52 AM 26.6 °F 16.8 °F 23.0 °F 86% 29.56 in 2.5 mi WNW 10.4 mph 18.4 mph N/A Snow Light Snow
7:13 AM 24.8 °F 12.9 °F 21.2 °F 86% 29.58 in 10.0 mi West 13.8 mph 21.9 mph N/A   Overcast
7:33 AM 23.0 °F 11.1 °F 19.4 °F 86% 29.59 in 10.0 mi West 12.7 mph 24.2 mph N/A Snow Light Snow
7:52 AM 23.0 °F 11.7 °F 19.4 °F 86% 29.59 in 10.0 mi WNW 11.5 mph 23.0 mph N/A   Overcast
8:13 AM 21.2 °F 7.8 °F 17.6 °F 86% 29.60 in 10.0 mi WNW 15.0 mph 26.5 mph N/A   Overcast
8:33 AM 21.2 °F 8.9 °F 17.6 °F 86% 29.61 in 10.0 mi WNW 12.7 mph 21.9 mph N/A   Overcast
8:52 AM 21.2 °F 9.5 °F 19.4 °F 93% 29.62 in 5.0 mi West 11.5 mph 19.6 mph N/A Snow Light Snow
9:13 AM 21.2 °F 7.8 °F 17.6 °F 86% 29.63 in 4.0 mi WNW 15.0 mph 23.0 mph N/A Snow Light Snow
9:33 AM 21.2 °F 7.8 °F 17.6 °F 86% 29.63 in 10.0 mi WNW 15.0 mph 24.2 mph N/A Snow Light Snow
9:52 AM 21.2 °F 8.3 °F 17.6 °F 86% 29.64 in 10.0 mi WNW 13.8 mph 21.9 mph N/A Snow Light Snow
10:13 AM 23.0 °F 10.1 °F 17.6 °F 80% 29.65 in 10.0 mi WNW 15.0 mph 27.6 mph N/A Snow Light Snow
10:33 AM 23.0 °F 9.2 °F 15.8 °F 74% 29.66 in 10.0 mi WNW 17.3 mph 27.6 mph N/A   Overcast
10:52 AM 23.0 °F 10.6 °F 15.8 °F 74% 29.66 in 10.0 mi WNW 13.8 mph 21.9 mph N/A   Overcast
11:13 AM 23.0 °F 11.7 °F 17.6 °F 80% 29.66 in 3.0 mi WNW 11.5 mph 21.9 mph N/A Snow Light Snow
11:33 AM 23.0 °F 11.1 °F 17.6 °F 80% 29.67 in 1.5 mi WNW 12.7 mph 25.3 mph N/A Snow Light Snow
11:52 AM 23.0 °F 9.2 °F 17.6 °F 80% 29.67 in 1.2 mi WNW 17.3 mph 23.0 mph N/A Snow Light Snow
12:13 PM 23.0 °F 10.6 °F 19.4 °F 86% 29.68 in 1.2 mi West 13.8 mph 24.2 mph N/A Snow Light Snow
12:33 PM 23.0 °F 9.6 °F 17.6 °F 80% 29.69 in 2.0 mi WNW 16.1 mph 21.9 mph N/A Snow Light Snow
12:52 PM 23.0 °F 10.1 °F 19.4 °F 86% 29.70 in 2.5 mi WNW 15.0 mph 24.2 mph N/A Snow Light Snow
1:13 PM 23.0 °F 8.7 °F 17.6 °F 80% 29.71 in 4.0 mi NW 18.4 mph 25.3 mph N/A Snow Light Snow
1:33 PM 24.8 °F 10.3 °F 17.6 °F 74% 29.73 in 3.0 mi NW 20.7 mph 32.2 mph N/A Snow Light Snow
1:52 PM 23.0 °F 9.2 °F 17.6 °F 80% 29.75 in 2.5 mi WNW 17.3 mph 33.4 mph N/A Snow Light Snow
2:13 PM 23.0 °F 8.3 °F 17.6 °F 80% 29.77 in 2.5 mi WNW 19.6 mph 27.6 mph N/A Snow Light Snow
2:33 PM 21.2 °F 7.3 °F 17.6 °F 86% 29.79 in 1.2 mi WNW 16.1 mph 23.0 mph N/A Snow Light Snow
2:52 PM 21.2 °F 6.8 °F 17.6 °F 86% 29.80 in 1.8 mi WNW 17.3 mph 25.3 mph N/A Snow Light Snow
3:13 PM 21.2 °F 5.6 °F 15.8 °F 80% 29.84 in 1.2 mi NNW 20.7 mph 27.6 mph N/A Snow Light Snow
3:33 PM 21.2 °F 5.6 °F 14.0 °F 74% 29.86 in 4.0 mi NW 20.7 mph 34.5 mph N/A Snow Light Snow
3:52 PM 19.4 °F 4.5 °F 15.8 °F 86% 29.89 in 1.8 mi NW 17.3 mph 29.9 mph N/A Snow Light Snow
4:13 PM 19.4 °F 5.5 °F 14.0 °F 80% 29.92 in 5.0 mi NW 15.0 mph 27.6 mph N/A Snow Light Snow
4:32 PM 19.4 °F 4.1 °F 14.0 °F 80% 29.94 in 7.0 mi NW 18.4 mph 28.8 mph N/A Snow Light Snow
4:53 PM 19.4 °F 3.6 °F 12.2 °F 74% 29.97 in 5.0 mi NNW 19.6 mph 31.1 mph N/A Snow Light Snow
5:12 PM 17.6 °F 2.2 °F 12.2 °F 79% 29.99 in 7.0 mi NW 17.3 mph 25.3 mph N/A Snow Light Snow
5:33 PM 17.6 °F 4.3 °F 10.4 °F 73% 30.02 in 10.0 mi NW 12.7 mph 26.5 mph N/A Snow Light Snow
5:53 PM 17.6 °F 5.0 °F 10.4 °F 73% 30.04 in 10.0 mi NNW 11.5 mph 20.7 mph N/A Snow Light Snow
6:12 PM 17.6 °F 5.0 °F 10.4 °F 73% 30.05 in 10.0 mi NNW 11.5 mph 23.0 mph N/A Snow Light Snow
6:33 PM 17.6 °F 3.2 °F 10.4 °F 73% 30.06 in 10.0 mi NW 15.0 mph 25.3 mph N/A Snow Light Snow
6:53 PM 17.6 °F 2.7 °F 10.4 °F 73% 30.08 in 10.0 mi NW 16.1 mph 24.2 mph N/A Snow Light Snow
7:12 PM 15.8 °F -0.2 °F 10.4 °F 79% 30.09 in 10.0 mi NW 17.3 mph 23.0 mph N/A Snow Light Snow
7:33 PM 15.8 °F 3.4 °F 10.4 °F 79% 30.09 in 10.0 mi NW 10.4 mph 18.4 mph N/A Snow Light Snow
7:53 PM 15.8 °F 4.2 °F 10.4 °F 79% 30.10 in 7.0 mi NW 9.2 mph - N/A Snow Light Snow
8:12 PM 15.8 °F 0.9 °F 8.6 °F 73% 30.11 in 10.0 mi NNW 15.0 mph 21.9 mph N/A Snow Light Snow
8:33 PM 15.8 °F 2.7 °F 8.6 °F 73% 30.12 in 10.0 mi NNW 11.5 mph 21.9 mph N/A Snow Light Snow
8:53 PM 14.0 °F 2.0 °F 8.6 °F 79% 30.13 in 10.0 mi NW 9.2 mph 17.3 mph N/A Snow Light Snow
9:12 PM 14.0 °F 3.9 °F 8.6 °F 79% 30.14 in 10.0 mi NNW 6.9 mph 17.3 mph N/A Snow Light Snow
9:33 PM 14.0 °F 1.2 °F 8.6 °F 79% 30.14 in 10.0 mi NW 10.4 mph - N/A Snow Light Snow
9:53 PM 14.0 °F 5.1 °F 8.6 °F 79% 30.17 in 7.0 mi NNW 5.8 mph 18.4 mph N/A Snow Light Snow
10:12 PM 12.2 °F -1.0 °F 8.6 °F 85% 30.17 in 7.0 mi NW 10.4 mph 18.4 mph N/A Snow Light Snow
10:33 PM 12.2 °F 0.7 °F 6.8 °F 79% 30.18 in 10.0 mi WNW 8.1 mph - N/A Snow Light Snow
10:53 PM 12.2 °F 2.9 °F 6.8 °F 79% 30.19 in 7.0 mi NNW 5.8 mph 17.3 mph N/A Snow Light Snow
11:13 PM 12.2 °F -0.2 °F 6.8 °F 79% 30.21 in 10.0 mi NW 9.2 mph - N/A Snow Light Snow
11:33 PM 10.4 °F 0.8 °F 5.0 °F 79% 30.21 in 10.0 mi North 5.8 mph - N/A   Overcast
11:53 PM 10.4 °F 4.0 °F 5.0 °F 79% 30.22 in 10.0 mi North 3.5 mph - N/A   Overcast